Other Public Products
Issued by NWS Grand Forks, ND

Home | Current Version | Previous Version | Graphics & Text | Print | Product List | Glossary On
Versions: 1 2 3 4 5 6 7 8 9 10 11 12 13 14 15 16 17 18 19 20 21 22 23 24 25 26 27 28 29 30 31 32 33 34 35 36 37 38 39 40 41 42 43 44 45 46 47 48 49 50
000
FPUS83 KFGF 302031
OPUFGF
PRAIRIE TO PINES WEATHER ROUNDUP
NATIONAL WEATHER SERVICE EASTERN NORTH DAKOTA/GRAND FORKS ND
300 PM CDT MON MAR 30 2015

 **SATELLITE DATA USED TO AUGMENT SKY COVER AT AUTOMATED STATIONS**
 *****  WEATHER ACROSS EASTERN NORTH DAKOTA  *****

CITY           SKY/WX    TMP DP  RH WIND       PRES   REMARKS
GRAND FORKS    PTSUNNY   48  39  71 NE12      29.85F
GRAND FORKS AF FAIR      49  36  61 E8        29.86R
GRAND CITY NWS   N/A     48 N/A N/A NE6         N/A
BUXTON           N/A     55  39  53 NE7         N/A
DEVILS LAKE    FAIR      55  39  54 NW9       29.84S
FARGO          FAIR      61  34  36 NE5       29.80F
WAHPETON ARPT  FAIR      64  34  32 NW20G30   29.78R
$$

 *****  WEATHER ACROSS CENTRAL AND WESTERN NORTH DAKOTA  *****

CITY           SKY/WX    TMP DP  RH WIND       PRES   REMARKS
JAMESTOWN      FAIR      64  37  36 NW29      29.81R
BISMARCK       MOSUNNY   66  34  30 NW25G31   29.91R
MINOT          FAIR      63  35  35 NW29G37   29.89R
MINOT AFB      FAIR      63  38  39 NW30G36   29.86F
GARRISON         N/A     65  35  33 NW30G36   29.90R
WILLISTON      MOSUNNY   67  31  26 W23G30    29.95F
DICKINSON      SUNNY     66  26  22 NW21G29   29.95F
HETTINGER      SUNNY     67  29  24 NW22G30   29.99S
$$

 *****  OTHER OBSERVATIONS NORTHEAST NORTH DAKOTA  *****

CITY           SKY/WX    TMP DP  RH WIND       PRES   REMARKS
WALHALLA         N/A     50  39  66 S9        29.83F
LANGDON        NOT AVBL
CAVALIER       FAIR      46  37  71 S9        29.86S
GRAFTON        NOT AVBL
CANDO          FAIR      57  37  47 NW8       29.85F
FORT TOTTEN      N/A     56  37  49 N6        29.95
ROLLA          FAIR      57  37  47 NW22G28   29.83S
RUGBY          NOT AVBL
 ***** THE ABOVE OBSERVATIONS ARE NON NWS ARE NOT QUALITY
        CONTROLLED AND MAY MIS-REPORT RAIN FOR SNOW...
$$

 *****  OTHER OBSERVATIONS SOUTHEAST NORTH DAKOTA *****

CITY           SKY/WX    TMP DP  RH WIND       PRES   REMARKS
COOPERSTOWN    NOT AVBL
VALLEY CITY    FAIR      63  37  39 NW20G32   29.81R
OAKES            N/A     64  39  39 NW28G38   29.81R
GWINNER        CLEAR     66  39  37 NW28G33     N/A
SHEYENNE NWR     N/A     66  39  37 NW16      29.95S
BUFFALO        NOT AVBL
WYNDMERE       NOT AVBL
 ***** THE ABOVE OBSERVATIONS ARE NON NWS ARE NOT QUALITY
       CONTROLLED AND MAY MIS-REPORT RAIN FOR SNOW...
$$

  *****  WEATHER ACROSS NORTHERN MINNESOTA  *****

CITY           SKY/WX    TMP DP  RH WIND       PRES   REMARKS
FLAG ISLAND    FAIR      37  30  75 SE7       29.81F
WARROAD        FAIR      46  36  66 SW8       29.85F
ROSEAU         FAIR      46  36  66 SW6       29.85S
HALLOCK        FAIR      48  37  66 S8        29.85F
THF RVR FALLS  CLOUDY    43  36  75 E6        29.87F
HALSTAD          N/A     54  34  46 NE8         N/A
FOSSTON        LGT RAIN  39  37  93 NE6       29.88R
BAUDETTE       FAIR      48  32  53 NW6       29.84S
WASKISH        FAIR      43  34  70 CALM      29.86R
CROOKSTON      CLOUDY    45  37  76 E13       29.87S
$$
  *****  WEATHER ACROSS CENTRAL AND WEST MINNESOTA  *****

CITY           SKY/WX    TMP DP  RH WIND       PRES   REMARKS
BEMIDJI        LGT RAIN  38  35  89 CALM      29.87R
PARK RAPIDS    CLOUDY    45  36  70 E6        29.82S
WADENA         FAIR      52  34  50 E9        29.79R
DETROIT LAKES  FAIR      54  32  43 E6        29.81F
MOORHEAD       FAIR      61  34  36 N6        29.80S
FERGUS FALLS   FAIR      63  30  29 NW6       29.78F
ELBOW LAKE     FAIR      64  36  35 SW5       29.76F
MORRIS MN      FAIR      70  36  28 NW21G26   29.75F
STAPLES        PTSUNNY   46  32  57 E5        29.80R
WHEATON        FAIR      66  37  34 W17G23    29.79S
$$
  *****  WEATHER ELSEWHERE ACROSS MINNESOTA  *****

CITY           SKY/WX    TMP DP  RH WIND       PRES   REMARKS
DULUTH         FAIR      49  25  39 S7        29.82F
INTRNTL FALLS  CLOUDY    51  23  33 W5        29.82F
ELY            FAIR      48  18  29 CALM      29.81F
CLOQUET        DRIZZLE   45  32  61 SW6       29.83F
BRAINERD       LGT RAIN  41  36  82 SE8       29.83F
HIBBING        CLOUDY    49  22  34 CALM      29.81F
ALEXANDRIA     PTSUNNY   56  33  42 S9        29.80F
SAINT CLOUD    FAIR      53  34  48 SE14      29.81F
MINNEAPOLIS    PTSUNNY   53  31  42 SE15      29.85F
$$

  *****  WEATHER ACROSS SOUTH DAKOTA  *****

CITY           SKY/WX    TMP DP  RH WIND       PRES   REMARKS
SIOUX FALLS    CLOUDY    75  25  15 W22G37    29.83F
BROOKINGS      NOT AVBL
WATERTOWN      FAIR      70  31  23 NW23G32   29.81F
HURON          MOSUNNY   74  29  19 NW25G36   29.84F
SISSETON         N/A     70  36  28 NW24G32   29.77S
ABERDEEN       SUNNY     72  34  24 NW23G36   29.83S
MITCHELL       PTSUNNY   74  30  19 NW23G32   29.87F
PIERRE         MOSUNNY   71  30  21 NW21G29   29.92S
MOBRIDGE       SUNNY     71  35  26 NW24G31   29.88R
RAPID CITY     MOSUNNY   68  30  24 N22G31    30.03F
$$

  *****  SOME WEATHER IN NEARBY STATES *****

CITY           SKY/WX    TMP DP  RH WIND       PRES   REMARKS
GLASGOW MT     SUNNY     66  31  27 N12G21    29.98F
GREAT FALLS MT SUNNY     66  25  21 SW14      30.02F
CHEYENNE WY    SUNNY     64  18  17 NW15      30.15F
SCOTTSBLUFF NE SUNNY     71  26  18 NW12G22   30.10F
OMAHA NE       PTSUNNY   76  29  17 SW22G30   29.93F
DES MOINES IA  PTSUNNY   73  23  15 SW26G35   29.92F
DAVENPORT IA   FAIR      68  27  21 W14G29    29.95F
CHICAGO IL     CLOUDY    60  31  33 W14G21    29.97F
EAU CLAIRE WI  LGT RAIN  45  39  79 E7        29.89F
LA CROSSE WI   FAIR      57  29  34 SE7       29.90F
$$

  *****  SOME NATIONAL WEATHER *****

CITY           SKY/WX    TMP DP  RH WIND       PRES   REMARKS
LA GUARDIA NY  CLOUDY    52  27  38 NW22      29.76S
RALEIGH NC     FAIR      63  43  48 W13G20    29.95F
ATLANTA GA     FAIR      69  47  45 N12       30.12F
NEW ORLEANS LA PTSUNNY   81  59  47 W8        30.17F
OKLAHOMA CITY  FAIR      76  38  25 S10       30.11F
ALBUQUERQUE NM MOSUNNY   73  21  14 W8        30.21F
SALT LAKE CITY MOSUNNY   69  25  19 W7        30.19F
LOS ANGELES CA MOSUNNY   66  56  70 W13       30.03F
BOISE ID       SUNNY     71  31  22 SE10      30.10F
SEATTLE WA     PTSUNNY   58  46  64 SW9       30.05F
$$

*** WEATHER ACROSS MANITOBA...SASKATCHEWAN AND ONTARIO ***
                ***ONTARIO***

CITY           SKY/WX    TMP DP  RH WIND       PRES   REMARKS
GERALDTON      MOSUNNY   27  10  50 NW6       29.87S WCI  20
THUNDER BAY    MOSUNNY   43  25  49 SE9G17    29.86F
SIOUX LOOKOUT  PTSUNNY   37  19  48 VRB2      29.84F
TORONTO        MOSUNNY   41  34  75 NW24G33   29.78R
BIG TROUT LK   SUNNY     14   1  57 S2        29.91F
PICKLE LAKE    MOSUNNY   30   3  31 CALM      29.85F
DRYDEN         SUNNY     43  25  49 E5        29.83F
KENORA         MOSUNNY   46  23  39 S5        29.82F
$$
                *** MANITOBA***

CITY           SKY/WX    TMP DP  RH WIND       PRES   REMARKS
BRANDON        PTSUNNY   55  45  67 W20       29.80F
DAUPHIN        SUNNY     54  41  62 W29       29.73S
ISLAND LAKE    PTSUNNY   28  16  59 SE7       29.84F WCI  21
PILOT MOUND      N/A     50  41  71 SW9         N/A
THE PAS        PTSUNNY   37  34  87 N5        29.74R
THOMPSON       PTSUNNY   28  18  64 SE6       29.80  WCI  22
WINNIPEG       LGT RAIN  50  32  50 SW12G18   29.84S
LYNN LAKE      FLURRIES  27  23  86 E8        29.76R WCI  18
CHURCHILL      FLURRIES   3  -2  78 N10       30.02S WCI -12
GILLAM         PTSUNNY   18   1  49 N8        29.92F WCI   7
$$
                ***SASKATCHEWAN***

CITY           SKY/WX    TMP DP  RH WIND       PRES   REMARKS
ESTEVAN        PTSUNNY   59  34  38 W26G32    29.93S
KINDERSLEY     PTSUNNY   52  25  35 NW10G18   29.97S
LLOYDMINSTER   MOSUNNY   52  28  40 W15       29.90F
PRINCE ALBERT  MOSUNNY   52  37  58 W18G25    29.83S
REGINA         MOSUNNY   55  39  54 W26G35    29.92F


USA.gov is the U.S. government's official web portal to all federal, state and local government web resources and services.